Location: Cutler
(25.6150°N, 80.3110°W)
Time: 23:57:50
(UTC-05:00)

Tiangong 2 - Visible Passes

Search period start: 22 February 2018 00:00
Search period end: 04 March 2018 00:00
Orbit: 384 x 388 km, 42.8° (Epoch: 22 February)

Date Brightness Start Highest point End Pass type
(mag) Time Alt. Az. Time Alt. Az. Time Alt. Az.
22 Feb 2.4 19:40:12 10° NW 19:42:18 29° N 19:42:18 29° N visible
23 Feb 2.8 18:41:43 10° NNW 18:44:03 19° NNE 18:46:22 10° ENE visible
23 Feb 4.0 20:17:55 10° WNW 20:18:57 18° W 20:18:57 18° W visible
24 Feb 0.9 19:18:47 10° NW 19:21:58 85° NE 19:23:29 28° SE visible
25 Feb 3.7 19:57:30 10° W 19:59:32 16° SW 20:00:30 14° SSW visible
26 Feb 2.6 18:57:42 10° WNW 19:00:39 36° SW 19:03:35 10° SSE visible
